Wetbulb
39.00 34.63 31.93 35.90 35.14 34.87 33.63 30.48 29.17 31.65 37.19 35.49 35.52 36.18 36.95 39.55 39.29 38.66 39.56 39.54 40.51 43.39 43.84 43.00 42.34 42.06 42.20 42.47 42.38 42.65 42.04 42.58 43.17 43.41 43.39 44.23 42.68 44.89 45.19 45.15 46.13 47.26 47.42 48.45
35.80 32.42 37.48 38.18 36.78 35.86 34.61 31.42 31.20 34.49 37.62 36.13 33.78 33.45 37.25 38.10 38.47 40.42 40.67 41.25 42.75 42.34 41.33 41.17 40.53 39.77 39.10 38.89 39.24 39.18 39.86 40.77 41.22 41.83 41.98 41.84 41.91 43.81 44.06 43.09 44.19 44.93 45.62 46.89
33.68 36.53 41.04 38.57 35.43 34.15 33.36 31.82 31.94 32.30 34.33 34.61 33.24 30.16 32.26 37.64 41.75 42.78 40.91 40.90 41.26 39.54 38.84 39.68 39.98 39.54 39.19 38.29 38.39 38.09 38.23 38.50 40.24 40.49 41.35 41.27 41.09 41.32 41.26 41.13 41.97 43.15 45.31 46.68
36.22 40.37 38.02 36.13 35.57 35.86 29.91 36.18 35.38 33.08 30.39 24.38 32.83 23.51 31.11 34.62 36.58 40.78 39.70 39.35 39.87 39.67 39.66 39.43 38.39 37.78 37.48 38.88 39.73 39.41 39.10 38.64 39.07 39.03 39.62 38.98 38.52 38.61 40.67 41.20 41.51 42.27 44.53 44.51
33.48 34.74 34.81 33.68 35.53 36.34 33.02 36.66 34.65 33.53 29.25 27.20 28.03 24.83 26.59 33.78 33.10 37.67 38.41 38.19 37.90 38.17 38.36 38.04 38.32 37.95 37.51 37.74 37.96 38.83 39.35 38.43 37.59 37.10 38.25 38.02 37.29 38.94 40.14 40.44 40.34 40.81 41.67 44.02
35.09 37.78 36.97 36.20 37.41 37.24 37.79 34.87 32.73 31.18 28.10 23.51 27.85 26.91 23.27 30.27 32.69 35.01 35.80 36.23 36.65 36.73 37.06 37.34 37.82 38.15 37.64 37.45 36.96 37.88 36.99 36.93 37.08 36.75 37.30 36.83 36.87 37.54 38.07 38.58 38.78 39.57 41.20 42.40
33.34 34.76 37.31 39.54 34.57 36.36 33.99 31.93 24.26 20.12 21.53 21.63 28.37 25.39 26.95 33.17 35.33 35.81 34.66 35.32 35.86 35.90 35.62 35.75 35.22 35.09 35.96 36.33 36.09 36.31 35.32 34.66 36.29 36.34 36.57 36.49 36.30 36.55 36.89 37.09 37.52 37.94 38.59 39.56
27.34 25.27 34.28 38.79 36.88 32.89 30.80 32.00 27.73 19.59 17.91 20.28 28.06 22.02 29.58 35.49 36.06 36.37 36.10 35.57 36.07 34.64 35.11 34.29 34.38 34.42 34.77 35.29 35.06 34.07 34.21 34.22 35.25 35.78 35.81 36.42 36.56 36.35 36.04 36.38 36.47 36.56 36.80 37.41
28.05 28.70 36.64 38.66 37.70 37.64 32.21 31.00 33.19 29.19 27.78 23.63 23.98 29.49 33.66 36.12 34.57 35.60 35.85 35.74 35.08 34.63 34.50 33.60 34.37 34.13 34.38 34.49 34.18 33.00 33.42 33.81 34.54 35.40 35.74 35.64 35.69 35.82 34.93 35.08 35.25 35.22 35.68 36.54
33.73 27.42 35.50 37.38 38.48 36.86 34.06 35.43 27.69 28.67 21.76 19.15 22.12 23.83 23.96 31.05 32.18 33.16 33.68 33.78 34.49 34.78 33.85 33.44 33.22 33.59 34.03 34.49 33.87 33.24 33.42 33.20 34.05 35.02 35.44 35.18 35.25 35.44 35.14 34.64 33.77 34.02 34.50 35.27
34.79 32.15 30.77 36.14 33.98 31.40 31.69 30.58 31.60 30.45 28.20 20.68 19.68 21.26 27.91 32.10 33.44 31.99 33.07 34.62 33.36 32.53 31.71 31.35 31.93 32.75 33.59 33.50 32.87 32.39 32.83 32.72 33.40 34.06 34.66 34.67 34.47 34.89 34.69 34.38 33.86 33.89 34.30 34.31
36.17 32.93 28.68 31.56 36.62 37.92 37.00 33.86 32.56 27.10 22.74 25.44 19.29 20.90 35.73 35.50 35.55 35.68 35.13 33.79 33.09 32.25 30.52 30.21 30.61 31.01 31.59 31.04 31.71 31.32 32.25 32.28 32.82 33.56 33.19 33.11 33.61 33.82 32.96 32.19 32.01 32.12 32.13 33.33
38.05 32.27 26.73 25.06 30.82 34.60 33.55 34.29 34.74 33.66 31.40 27.05 20.49 22.90 36.97 37.11 37.13 36.39 34.32 32.61 30.93 29.71 28.69 27.96 29.07 29.68 30.39 30.70 30.95 31.17 31.62 31.65 32.39 32.98 32.16 31.68 31.72 31.62 31.38 31.61 30.77 30.60 31.12 31.58
39.95 32.65 29.43 24.48 26.21 30.38 29.90 32.57 34.93 34.04 28.48 28.00 26.50 28.17 32.08 35.45 35.83 31.80 29.64 28.35 27.57 27.95 29.01 27.77 28.80 29.43 30.07 30.53 30.46 30.50 31.16 31.50 31.54 31.76 30.75 30.08 30.33 30.20 30.55 30.62 30.22 29.99 29.91 29.35
35.60 30.00 31.32 31.92 32.77 33.41 31.40 31.69 32.71 33.03 32.83 28.52 29.33 28.74 32.85 34.99 32.64 29.12 28.32 28.16 28.08 27.53 27.34 26.98 27.64 28.73 29.15 29.36 29.59 30.22 29.54 29.44 29.45 28.68 28.03 27.32 28.65 28.53 28.68 28.51 27.89 28.29 27.84 27.92
34.04 27.00 29.98 27.96 32.08 33.10 30.30 31.55 31.64 32.75 33.79 32.76 31.49 29.96 35.35 33.47 31.01 28.41 27.82 27.35 26.30 26.63 27.18 27.14 28.09 28.37 28.73 29.48 29.56 29.56 28.72 28.33 28.51 27.26 26.69 26.57 26.46 26.03 25.49 25.75 25.68 25.07 25.01 25.78
31.21 29.50 27.76 24.76 29.18 28.01 26.74 29.74 30.13 29.26 29.55 31.35 29.26 31.52 31.04 28.95 29.01 28.26 27.81 28.00 26.14 26.63 26.92 27.16 27.52 28.19 29.34 30.06 30.38 29.73 29.07 29.41 28.12 27.46 27.10 26.10 25.70 24.57 23.97 23.69 23.24 22.87 22.83 23.72
30.93 29.13 29.36 25.73 27.47 20.06 26.48 30.64 32.31 29.53 30.38 31.24 30.77 30.78 30.76 29.88 29.35 28.71 29.07 26.60 25.52 25.87 26.24 27.29 27.62 27.95 28.72 28.91 30.78 30.43 29.99 28.85 27.60 26.64 26.28 25.94 24.98 23.76 22.91 22.18 21.09 20.99 21.08 21.23
33.12 28.86 26.64 23.07 22.62 25.19 26.00 28.89 25.91 25.18 25.20 28.91 29.58 29.57 27.30 26.87 26.83 26.11 29.16 26.98 23.50 23.54 27.06 27.30 27.56 26.68 25.34 26.56 28.85 29.18 29.03 29.11 26.73 25.93 25.18 25.59 24.54 22.13 21.38 19.63 18.86 20.14 19.74 20.43
32.59 31.88 28.56 24.09 16.96 14.17 21.55 29.80 32.79 29.62 20.22 27.98 29.08 27.41 25.32 26.13 22.13 18.68 26.15 26.17 24.99 23.96 24.91 24.05 23.68 24.21 25.24 26.56 28.03 26.95 25.88 26.66 25.68 25.17 24.99 25.32 25.00 22.26 20.40 20.01 19.69 20.52 14.81 19.62
27.91 27.41 24.64 22.81 20.55 21.97 27.45 31.47 32.26 18.08 21.07 29.60 29.56 28.11 25.89 21.31 19.83 22.46 24.46 22.80 24.01 24.70 24.44 24.76 24.19 22.58 24.06 25.98 24.60 21.25 22.95 23.72 25.54 26.84 25.80 24.94 24.65 23.57 22.07 20.02 19.79 19.93 18.32 19.63
25.63 23.89 22.86 24.20 20.48 14.81 30.71 31.04 24.63 24.88 25.86 26.31 25.78 27.23 23.21 25.02 25.54 24.10 22.47 24.93 23.78 22.98 23.41 23.29 22.03 22.43 23.78 24.18 25.31 22.82 20.39 21.41 25.15 25.04 25.39 24.25 23.77 24.50 23.12 19.70 20.37 20.86 21.32 19.48
23.59 22.31 19.35 23.12 20.29 25.30 29.00 28.05 27.67 27.63 24.46 22.24 23.32 24.71 25.33 24.10 23.86 24.20 23.85 21.72 19.05 19.77 21.82 22.78 21.56 21.78 21.98 22.44 22.65 22.11 24.49 26.44 26.19 25.06 23.13 23.46 24.19 24.36 21.86 19.95 18.63 19.31 19.78 19.18
27.20 28.44 20.43 22.78 23.86 25.90 28.19 28.09 27.64 26.88 25.07 23.79 25.23 25.44 25.36 22.59 19.48 17.75 18.53 18.04 13.52 15.61 18.98 20.15 20.25 20.30 20.08 21.61 22.67 22.98 24.11 24.84 25.11 23.66 23.22 23.16 22.83 22.28 21.53 20.98 20.27 18.99 18.34 18.09
27.27 28.24 25.69 23.83 26.64 28.23 28.67 28.44 27.03 25.13 24.70 23.81 23.97 24.07 22.23 20.44 19.05 19.58 17.78 16.39 15.64 13.17 16.18 19.72 19.52 19.15 18.74 19.86 20.32 20.71 22.70 23.71 22.98 22.11 22.17 21.66 21.50 21.18 20.02 18.89 19.29 18.97 19.48 19.88
29.80 27.18 25.52 23.85 28.83 27.36 26.62 27.40 27.50 24.83 23.74 23.39 21.92 21.70 22.49 21.73 19.78 19.14 17.61 18.59 17.37 14.87 16.43 16.41 17.13 16.82 16.72 17.89 17.47 18.60 21.39 23.02 21.80 20.52 20.40 20.33 19.94 19.20 18.81 17.77 16.51 21.52 21.80 22.05
MSLP
1014.87 1015.83 1015.88 1015.37 1015.91 1016.73 1017.23 1017.27 1017.19 1016.75 1016.03 1015.66 1014.84 1014.88 1014.66 1013.63 1013.52 1013.49 1013.24 1012.98 1013.28 1014.16 1015.01 1015.26 1015.44 1015.65 1015.58 1015.45 1015.17 1015.06 1014.51 1014.35 1014.22 1013.78 1013.38 1012.77 1012.41 1012.39 1012.50 1012.59 1012.47 1012.48 1012.57 1012.37
1015.23 1015.35 1015.22 1015.59 1016.06 1016.75 1017.12 1017.47 1017.44 1016.78 1016.01 1015.96 1014.96 1014.96 1014.45 1014.20 1014.93 1015.15 1014.81 1013.82 1014.44 1015.39 1015.85 1016.30 1016.61 1016.78 1016.87 1016.99 1016.68 1016.42 1016.05 1015.58 1015.37 1015.39 1014.87 1014.07 1013.58 1013.11 1013.01 1013.07 1012.86 1012.78 1012.67 1012.53
1014.64 1014.52 1014.39 1015.30 1015.91 1016.46 1016.79 1017.27 1017.22 1017.04 1016.53 1016.20 1015.74 1015.02 1014.78 1015.15 1015.15 1015.28 1015.89 1016.19 1016.28 1016.85 1017.07 1017.30 1017.61 1018.09 1018.05 1017.92 1017.72 1017.65 1017.39 1016.78 1016.78 1016.01 1015.42 1014.01 1013.97 1013.78 1013.52 1013.15 1012.83 1012.93 1012.65 1012.54
1014.63 1013.98 1014.58 1015.23 1015.41 1015.83 1016.46 1016.29 1016.86 1017.16 1017.53 1017.54 1017.11 1016.41 1015.63 1016.18 1016.50 1016.47 1017.27 1017.47 1017.99 1018.29 1018.45 1018.57 1018.77 1019.04 1019.04 1019.19 1018.74 1018.47 1018.42 1016.39 1018.56 1017.20 1017.34 1015.91 1015.51 1014.52 1013.84 1013.62 1013.20 1013.03 1012.72 1012.67
1014.21 1014.12 1014.39 1015.01 1014.84 1015.36 1015.69 1015.85 1016.53 1017.38 1017.99 1018.21 1018.09 1018.55 1016.27 1016.91 1017.56 1017.75 1018.40 1018.84 1019.11 1019.42 1019.68 1019.87 1019.96 1020.20 1020.27 1020.15 1019.41 1018.96 1018.65 1018.20 1018.61 1017.93 1018.28 1016.85 1016.72 1014.57 1014.45 1013.97 1013.79 1013.15 1013.00 1012.66
1013.98 1014.02 1014.19 1014.22 1014.57 1014.93 1015.43 1016.20 1016.86 1017.74 1018.47 1018.49 1017.64 1018.26 1016.77 1017.80 1018.63 1019.07 1019.63 1019.98 1020.15 1020.27 1020.49 1020.68 1020.71 1020.66 1020.81 1020.86 1020.04 1019.33 1019.27 1019.29 1018.12 1018.03 1018.38 1017.87 1017.01 1015.34 1015.02 1014.52 1013.79 1013.31 1013.10 1012.89
1013.78 1013.76 1013.79 1013.87 1014.60 1015.20 1015.46 1016.37 1017.40 1017.97 1018.59 1018.11 1017.76 1018.40 1017.63 1018.44 1018.92 1019.37 1019.91 1020.28 1020.42 1020.41 1020.54 1020.79 1020.98 1020.96 1020.59 1020.54 1020.60 1019.60 1019.61 1019.20 1019.28 1018.80 1018.89 1018.38 1017.95 1016.32 1016.13 1015.09 1014.21 1013.92 1013.64 1013.15
1013.39 1013.45 1013.26 1013.37 1013.63 1014.55 1015.49 1015.98 1016.74 1017.30 1017.86 1017.98 1017.82 1017.84 1017.49 1018.58 1019.26 1019.85 1020.39 1020.70 1020.84 1021.13 1021.27 1021.39 1021.37 1020.86 1020.90 1020.72 1020.74 1020.05 1019.78 1019.26 1019.59 1018.75 1019.34 1019.45 1018.04 1017.09 1016.31 1015.53 1015.07 1014.89 1014.55 1013.75
1012.86 1012.89 1012.70 1012.87 1013.23 1013.92 1015.50 1015.75 1016.01 1016.93 1017.68 1017.92 1017.27 1017.65 1018.01 1018.31 1019.14 1019.73 1020.23 1020.65 1020.80 1021.28 1021.54 1021.94 1022.19 1021.79 1021.83 1021.22 1021.01 1020.75 1020.05 1020.12 1020.12 1020.30 1020.09 1019.33 1018.26 1017.42 1016.37 1015.79 1015.64 1015.38 1014.88 1014.23
1011.86 1012.42 1012.42 1012.83 1013.22 1014.09 1014.31 1014.99 1016.24 1016.99 1017.38 1017.32 1016.79 1016.85 1016.65 1017.51 1018.34 1019.20 1019.72 1020.13 1020.98 1021.61 1022.02 1022.17 1022.46 1022.01 1022.03 1021.91 1021.84 1021.19 1020.68 1020.55 1020.88 1020.23 1019.68 1019.22 1018.35 1017.33 1016.87 1016.43 1016.05 1015.86 1015.25 1014.64
1011.50 1012.28 1012.80 1012.95 1013.05 1013.46 1014.58 1014.85 1015.26 1015.98 1016.79 1016.80 1016.70 1015.72 1014.88 1016.03 1017.29 1018.28 1019.14 1019.72 1020.77 1021.72 1022.38 1022.68 1022.53 1022.37 1022.19 1022.27 1021.84 1021.42 1021.09 1020.86 1020.81 1020.48 1019.96 1019.32 1018.41 1017.90 1017.58 1016.99 1016.68 1016.17 1015.45 1014.96
1011.38 1011.91 1012.38 1012.45 1012.60 1012.74 1013.30 1013.85 1014.28 1015.22 1015.98 1016.32 1016.27 1015.25 1014.95 1015.65 1016.87 1018.13 1019.11 1019.99 1021.00 1021.76 1022.53 1022.77 1022.69 1022.45 1022.26 1022.26 1021.97 1021.98 1021.56 1021.07 1020.89 1020.73 1020.15 1019.34 1019.09 1018.53 1017.92 1017.61 1017.28 1016.77 1016.27 1015.45
1011.65 1012.60 1012.98 1012.95 1013.42 1013.46 1013.18 1013.01 1013.17 1013.85 1014.69 1014.61 1015.48 1014.74 1015.01 1015.75 1016.72 1017.91 1018.94 1020.14 1021.26 1022.03 1022.45 1022.84 1022.76 1022.80 1022.75 1022.72 1022.71 1022.50 1022.06 1021.83 1021.34 1021.08 1020.50 1019.90 1019.62 1019.09 1018.48 1018.39 1017.99 1017.32 1016.60 1015.87
1011.76 1012.32 1012.50 1012.60 1012.70 1012.92 1013.28 1012.95 1012.91 1013.49 1013.89 1013.41 1013.35 1014.13 1015.08 1015.62 1016.53 1017.94 1019.14 1020.45 1021.56 1022.25 1022.58 1022.95 1023.06 1023.22 1023.17 1022.98 1022.89 1022.68 1022.44 1022.09 1021.74 1021.35 1020.97 1020.60 1020.25 1019.78 1019.22 1019.27 1018.72 1018.15 1017.57 1016.87
1012.09 1012.65 1012.92 1012.47 1012.46 1012.69 1012.85 1012.75 1012.54 1012.77 1012.71 1013.14 1013.08 1013.30 1013.91 1014.96 1016.33 1018.11 1019.31 1020.59 1021.64 1022.24 1022.85 1023.12 1023.36 1023.53 1023.55 1023.36 1023.28 1023.14 1023.04 1022.91 1022.68 1022.17 1021.76 1021.00 1020.74 1020.49 1020.22 1020.21 1019.81 1019.04 1018.74 1017.90
1012.55 1012.78 1013.01 1012.81 1012.54 1012.79 1012.83 1012.24 1012.17 1012.35 1012.36 1012.49 1012.95 1013.43 1013.55 1015.28 1017.14 1018.53 1019.67 1020.60 1021.55 1022.36 1022.84 1023.27 1023.47 1023.64 1023.68 1023.57 1023.57 1023.45 1023.29 1023.15 1022.84 1022.56 1022.05 1021.88 1021.76 1021.55 1021.35 1020.91 1020.24 1019.68 1019.23 1018.45
1012.89 1013.14 1013.32 1012.82 1012.66 1012.92 1012.77 1011.19 1011.38 1011.53 1011.83 1011.90 1012.54 1013.07 1014.58 1016.23 1017.35 1018.62 1019.93 1020.88 1021.76 1022.55 1023.08 1023.54 1023.85 1024.05 1024.06 1023.97 1023.89 1023.89 1023.96 1023.79 1023.34 1022.93 1022.77 1022.58 1022.69 1022.40 1022.00 1021.54 1020.83 1020.32 1019.80 1019.15
1012.29 1013.03 1013.07 1012.97 1013.08 1012.66 1011.39 1011.07 1010.81 1011.07 1011.45 1012.03 1012.69 1013.60 1014.85 1016.35 1017.89 1019.20 1020.37 1021.31 1022.29 1022.91 1023.47 1023.87 1024.13 1024.36 1024.46 1024.51 1024.29 1024.26 1024.21 1024.18 1024.01 1023.80 1023.67 1023.51 1023.23 1022.84 1022.70 1022.23 1021.74 1021.17 1020.79 1020.26
1011.02 1012.42 1013.04 1013.26 1013.01 1012.07 1011.58 1011.30 1011.32 1011.48 1012.00 1012.66 1013.74 1015.27 1016.61 1017.73 1019.02 1020.55 1021.18 1021.87 1022.71 1023.44 1023.91 1024.31 1024.51 1024.88 1024.99 1024.87 1024.70 1024.69 1024.69 1024.76 1024.58 1024.50 1024.22 1024.25 1023.90 1023.56 1023.29 1022.86 1022.60 1022.20 1021.32 1020.66
1011.32 1011.57 1012.80 1013.50 1013.32 1012.67 1011.76 1011.30 1011.40 1011.76 1012.58 1013.09 1014.09 1015.69 1017.13 1018.29 1019.90 1020.87 1021.68 1022.41 1023.40 1023.94 1024.43 1024.84 1025.17 1025.32 1025.31 1025.49 1025.47 1025.53 1025.52 1025.51 1025.39 1025.05 1024.96 1024.79 1024.42 1024.26 1024.06 1023.79 1023.16 1022.55 1021.93 1021.22
1011.68 1012.29 1012.54 1013.08 1013.29 1012.50 1011.69 1011.75 1012.16 1013.28 1013.68 1013.67 1014.55 1015.97 1017.46 1018.68 1019.64 1020.34 1021.85 1023.08 1023.72 1024.32 1024.83 1025.32 1025.69 1025.96 1026.17 1026.13 1026.11 1026.11 1026.04 1025.98 1025.92 1025.68 1025.58 1025.28 1024.98 1024.65 1024.45 1024.08 1023.31 1022.82 1022.41 1022.09
1011.03 1012.01 1012.53 1013.26 1013.61 1013.29 1011.98 1012.67 1013.28 1013.61 1014.28 1014.84 1015.83 1016.84 1018.29 1019.37 1020.16 1021.24 1022.41 1023.36 1024.21 1024.84 1025.41 1025.89 1026.22 1026.51 1026.54 1026.51 1026.41 1026.54 1026.50 1026.42 1026.19 1025.99 1025.78 1025.52 1025.29 1024.90 1024.74 1024.55 1024.07 1023.53 1022.93 1022.52
1011.02 1010.59 1011.72 1012.51 1012.57 1012.70 1012.79 1013.09 1013.51 1014.03 1014.81 1015.91 1016.57 1017.51 1018.53 1019.78 1020.92 1021.98 1022.99 1023.91 1024.78 1025.30 1025.83 1026.29 1026.61 1026.85 1026.96 1027.01 1026.92 1026.87 1026.73 1026.42 1026.22 1026.04 1025.87 1025.68 1025.57 1025.53 1025.41 1024.96 1024.51 1023.94 1023.43 1023.05
1010.44 1010.71 1011.51 1012.29 1012.76 1013.10 1013.43 1013.84 1014.32 1014.70 1015.45 1016.33 1016.91 1017.78 1018.80 1020.01 1021.37 1022.43 1023.53 1024.60 1025.33 1025.82 1026.31 1026.73 1026.94 1027.24 1027.54 1027.49 1027.32 1027.22 1026.99 1026.67 1026.36 1026.23 1026.18 1026.19 1026.06 1026.09 1025.94 1025.52 1025.09 1024.63 1024.16 1023.83
1010.10 1010.66 1011.36 1012.36 1012.99 1013.47 1013.86 1014.27 1014.90 1015.59 1016.30 1017.05 1017.77 1018.41 1019.35 1020.34 1021.84 1022.83 1024.06 1025.03 1025.72 1026.38 1026.88 1027.16 1027.45 1027.87 1028.08 1027.95 1027.76 1027.68 1027.28 1026.82 1026.62 1026.66 1026.69 1026.77 1026.88 1026.80 1026.63 1026.42 1025.86 1025.40 1025.09 1024.71
1009.78 1010.26 1010.89 1010.90 1011.11 1011.99 1012.80 1014.12 1015.03 1015.83 1016.78 1017.54 1018.18 1019.30 1020.21 1020.76 1021.91 1023.21 1024.48 1025.34 1026.09 1026.83 1027.27 1027.77 1028.21 1028.46 1028.60 1028.55 1028.45 1028.12 1027.68 1027.36 1027.25 1027.40 1027.64 1027.82 1027.79 1027.68 1027.45 1027.28 1026.98 1026.39 1026.00 1025.69
Wind_Speed
4 4 9 13 7 5 5 3 3 5 10 7 12 13 9 9 8 11 12 8 4 11 11 15 16 16 15 16 16 15 15 15 11 5 4 4 3 2 4 4 5 6 5 6
4 6 10 4 5 5 6 2 6 6 7 6 10 10 9 6 6 10 13 13 9 12 15 15 17 16 16 15 16 16 16 14 11 8 5 3 3 2 3 3 4 4 4 4
6 4 5 7 4 6 5 5 4 8 5 5 8 5 5 5 15 15 17 17 17 14 14 16 17 16 14 16 16 14 14 16 15 15 10 6 4 2 3 6 5 7 6 5
5 5 4 3 5 6 3 6 7 5 1 3 3 9 4 3 12 14 15 17 15 16 16 16 17 17 17 15 12 13 13 16 14 14 10 8 4 4 6 5 5 6 7 8
7 3 4 6 11 6 7 4 4 4 3 2 2 2 3 6 10 12 15 15 16 16 16 17 16 15 13 14 13 12 12 15 11 15 12 9 7 6 5 6 8 7 7 8
7 1 6 8 2 6 5 4 3 4 4 4 8 8 5 4 3 9 10 11 11 11 10 11 10 11 11 10 11 11 14 13 15 15 14 13 12 11 9 9 8 8 7 8
1 9 5 3 3 4 3 5 3 4 1 6 1 2 3 3 4 8 9 7 6 6 6 5 8 10 9 10 11 10 12 12 13 13 14 16 14 11 10 10 8 11 8 8
6 3 7 6 17 8 6 8 5 6 3 3 2 6 2 6 7 6 6 6 5 5 5 5 5 4 7 10 12 13 14 14 13 13 13 11 12 8 8 10 9 7 8 9
6 4 2 4 3 10 5 6 2 1 1 1 5 1 3 8 7 6 6 4 3 4 6 7 7 8 8 9 10 9 11 11 11 10 9 10 11 10 10 12 11 9 10 10
5 1 5 4 5 4 6 8 4 1 4 5 5 5 6 15 12 11 9 6 3 5 6 6 6 8 9 9 8 9 10 10 10 10 9 9 11 11 11 10 12 12 11 11
6 5 2 7 7 10 3 4 2 3 3 4 3 7 5 17 16 14 10 7 7 4 4 5 4 5 6 7 8 9 9 10 9 9 9 9 11 11 10 9 10 10 12 12
6 5 10 13 3 5 3 5 7 4 5 4 3 7 4 10 12 12 9 8 7 6 3 2 4 6 7 8 10 10 9 9 10 10 10 11 12 11 11 12 12 13 12 11
6 1 1 5 4 2 7 7 10 4 2 15 5 5 7 12 11 12 12 10 7 5 5 5 5 7 8 8 8 8 8 9 10 9 10 10 11 12 13 13 14 14 13 13
6 5 7 9 4 4 4 7 11 12 6 4 12 7 12 14 14 13 13 10 7 5 5 5 6 7 7 8 8 9 8 9 9 10 10 11 12 12 13 13 14 14 14 14
5 8 6 6 5 5 5 7 8 16 17 10 6 10 16 17 16 13 12 10 7 6 6 5 5 6 6 8 7 9 9 9 8 9 10 11 11 12 12 12 12 12 13 12
2 3 4 4 7 11 10 11 9 13 10 8 7 6 3 13 12 12 10 10 7 6 7 5 6 6 7 8 8 7 9 10 9 10 11 11 11 11 11 11 12 12 13 14
6 5 4 6 4 2 9 18 13 6 4 5 14 7 12 14 15 12 10 9 7 7 6 5 5 5 6 7 7 8 8 7 9 11 11 12 10 10 11 11 12 13 13 13
7 5 3 2 4 11 1 4 5 8 4 4 3 14 15 13 10 10 8 9 8 8 7 5 5 5 6 6 6 4 6 8 8 9 10 11 11 11 11 11 12 12 10 11
8 6 3 3 5 4 3 5 6 8 6 5 12 12 15 15 11 5 7 6 5 6 6 6 6 5 4 6 7 8 8 6 9 9 9 9 10 9 10 11 10 9 9 11
5 4 5 3 4 6 6 1 3 2 6 10 12 17 18 13 8 4 8 10 9 7 7 6 5 4 7 7 6 6 6 6 7 8 7 8 8 10 10 9 9 8 4 8
4 3 8 4 4 6 4 5 4 6 7 11 15 16 16 7 3 9 12 8 7 9 9 7 6 6 4 4 4 5 5 6 5 5 6 7 7 9 9 9 8 9 7 9
8 8 5 3 3 8 4 3 6 4 3 7 8 14 11 11 14 15 12 12 12 10 8 6 6 5 4 5 5 5 4 3 3 3 5 5 6 8 8 10 9 9 9 11
5 7 7 8 7 1 2 1 1 3 5 4 7 8 15 16 13 14 12 12 8 8 7 6 6 6 5 4 4 4 5 4 4 5 6 6 7 7 8 9 10 9 10 11
1 2 4 4 2 3 3 3 2 3 4 5 7 14 15 16 12 11 10 9 6 5 6 5 6 7 6 5 6 5 5 4 6 7 8 7 8 9 9 7 8 9 10 10
4 7 6 1 2 4 4 3 5 9 11 11 9 11 14 16 13 12 10 8 6 5 4 5 6 6 6 5 6 5 6 5 7 8 7 8 7 6 6 8 8 8 10 13
4 6 5 6 9 4 4 11 13 13 11 12 15 12 9 13 13 12 9 8 7 6 6 6 6 6 5 6 5 6 6 6 6 8 7 5 5 5 6 6 6 18 19 21
Wind_Direction
174 139 212 221 186 144 107 157 239 265 279 300 275 290 297 281 298 302 305 296 20 75 62 46 37 31 28 27 26 21 21 11 7 347 344 351 20 43 63 43 32 40 11 355
92 238 226 130 161 194 223 258 269 282 271 297 292 306 270 278 354 27 9 347 84 72 56 47 38 32 29 23 20 17 13 11 6 355 327 329 327 353 79 40 36 23 356 336
154 227 158 166 169 204 185 195 206 246 314 292 324 316 84 71 35 30 37 38 55 57 57 49 40 29 24 22 17 16 14 14 2 354 344 347 351 333 332 6 17 354 348 327
223 248 137 143 221 179 253 204 208 245 308 271 26 286 94 16 29 28 50 52 49 46 48 44 38 29 22 8 14 15 5 40 355 357 341 359 356 348 5 343 351 349 355 348
241 197 192 195 231 142 227 174 179 153 199 350 229 278 187 58 18 26 59 53 48 44 40 34 32 29 18 5 11 10 8 24 359 7 344 1 330 11 345 353 344 359 345 345
209 121 164 199 163 172 126 93 72 77 125 241 212 185 304 39 12 71 64 58 56 57 48 44 42 37 11 4 12 16 10 6 12 1 352 352 347 4 355 355 350 353 347 338
161 242 227 152 107 47 128 120 307 322 212 232 126 178 301 110 116 129 126 125 115 112 94 63 26 20 27 11 6 20 15 12 5 6 351 352 346 0 347 355 355 348 344 339
169 294 156 203 211 178 180 175 205 245 209 233 325 232 235 145 132 129 112 102 91 66 48 39 35 51 19 20 9 11 6 7 358 3 349 335 346 354 355 359 356 346 335 336
161 258 146 171 133 145 189 203 193 261 166 262 213 220 185 169 159 169 151 144 107 55 42 27 16 25 9 24 20 4 15 10 355 346 337 343 353 354 3 3 358 347 340 336
195 262 196 148 103 42 165 163 105 202 242 231 245 236 222 190 189 190 183 171 82 56 36 26 6 17 10 14 3 8 20 10 343 350 352 352 351 3 5 0 0 348 343 342
143 157 193 118 200 171 140 199 137 151 185 224 247 250 229 188 189 190 189 147 134 99 46 6 3 12 18 7 7 10 8 3 353 351 352 351 3 4 1 360 354 350 348 348
194 176 229 216 144 166 179 213 172 184 217 224 167 267 149 161 181 180 169 148 127 105 99 23 2 21 12 16 7 1 4 3 359 357 0 10 3 3 13 10 4 1 353 355
176 219 271 330 354 356 212 207 216 198 121 220 159 247 165 174 170 176 155 142 127 129 103 42 17 24 13 19 8 6 8 358 3 359 5 16 10 9 15 8 8 7 358 360
151 181 184 234 184 139 200 223 223 213 233 208 215 153 185 190 177 150 136 124 129 117 81 57 30 25 17 23 13 13 12 7 5 7 14 16 12 11 11 10 1 5 3 4
157 234 206 232 198 180 218 231 217 219 232 218 197 207 189 196 164 154 136 137 138 113 92 65 49 37 28 34 16 25 22 14 4 15 14 18 11 13 14 9 6 10 5 6
202 227 162 264 220 224 241 233 219 233 236 245 246 211 185 128 128 139 147 145 135 126 102 80 61 49 28 32 25 26 23 21 13 18 21 17 14 12 10 6 6 10 8 6
170 159 159 247 184 209 255 245 221 193 220 231 220 198 140 147 154 153 152 146 138 137 125 99 73 52 32 25 25 40 27 16 19 23 21 20 15 16 12 8 14 10 5 4
158 171 181 223 132 232 258 313 260 225 166 172 95 153 159 141 112 109 132 141 139 139 146 106 76 57 26 15 31 26 45 25 24 27 25 22 19 21 15 17 15 9 358 3
149 150 184 197 214 316 244 221 166 173 245 162 139 127 122 116 97 97 139 129 129 125 127 90 78 56 30 27 25 32 21 48 29 25 24 17 19 13 8 8 2 355 3 8
124 141 175 153 183 222 243 107 114 74 281 173 148 150 146 138 171 184 144 123 119 121 111 99 76 57 47 22 26 43 35 30 38 24 19 17 23 25 17 7 2 358 329 10
154 169 198 162 214 283 220 153 132 113 246 151 156 154 155 167 201 138 129 121 122 114 107 94 83 73 49 17 38 50 37 32 4 26 32 28 22 35 23 5 5 3 1 20
174 160 184 154 179 271 151 91 182 200 29 121 138 156 139 126 126 128 131 134 123 120 114 108 97 79 51 33 57 47 36 310 358 19 33 24 22 28 21 17 9 17 20 30
208 170 177 177 204 254 355 104 137 135 129 150 126 149 141 139 137 137 132 122 123 123 120 119 114 97 55 50 49 58 16 19 31 39 34 21 29 34 26 26 23 26 26 32
220 161 128 97 198 164 129 79 69 110 109 122 131 140 143 137 134 119 121 121 115 108 116 116 102 88 72 50 55 38 22 6 53 49 41 37 36 43 31 31 34 30 33 33
194 138 137 105 134 112 188 170 137 103 110 111 106 129 135 129 128 128 126 120 113 108 100 102 99 96 76 55 51 20 11 20 63 53 41 34 31 32 36 36 33 40 34 41
190 164 171 213 183 155 171 151 142 132 133 131 129 124 124 130 127 125 121 120 120 110 100 93 86 89 65 56 40 16 15 46 59 58 47 29 33 31 43 32 36 36 45 42